Regional Weather Roundup
Issued by NWS Wilmington, NC

Home | Current Version | Previous Version | Text Only | Print | Product List | Glossary On
Versions: 1 2 3 4 5 6 7 8 9 10 11 12 13 14 15 16 17 18 19 20 21 22 23 24 25 26 27 28 29 30 31 32 33 34 35 36 37 38 39 40 41 42 43 44 45 46 47 48 49 50
915
ASUS42 KILM 251613
RWRILM
RWRILM
REGIONAL HOURLY WEATHER ROUNDUP
NATIONAL WEATHER SERVICE WILMINGTON NC
1200 PM EDT MON JUL 25 2016

NOTE: "FAIR" INDICATES FEW OR NO CLOUDS BELOW 12,000 FEET WITH NO
SIGNIFICANT WEATHER AND/OR OBSTRUCTIONS TO VISIBILITY.

...............WFO WILMINGTON COUNTY WARNING AREA...............

......COASTAL NC AND SC COUNTIES......

CITY           SKY/WX    TMP DP  RH WIND       PRES   REMARKS
WILMINGTON     MOSUNNY   90  74  59 SW10      30.08R HX  99
N MYRTLE BEACH MOSUNNY   87  77  72 S13       30.08S HX  99
MYRTLE BEACH   MOSUNNY   90  70  51 S12       30.10F HX  95

......INLAND NC AND SC COUNTIES.......

CITY           SKY/WX    TMP DP  RH WIND       PRES   REMARKS
LUMBERTON      SUNNY     90  73  57 SW8       30.06F HX  98
ELIZABETHTOWN  SUNNY     89  74  60 SW8       30.07F HX  98
WHITEVILLE     SUNNY     88  73  60 SW6       30.08S HX  95
FLORENCE       PTSUNNY   90  71  53 SW8       30.08S HX  96
DARLINGTON     SUNNY     88  77  69 SW13      30.07F HX 100
KINGSTREE      FAIR      90  68  48 S5        30.08F HX  93
HARTSVILLE     FAIR      90  73  58 S6        30.06F HX  98
BENNETTSVILLE  FAIR      90  77  66 SW7       30.06S HX 102
CONWAY         FAIR      88  73  62 S6        30.08F HX  96
GEORGETOWN     FAIR      88  72  58 W3        30.10S HX  94
MARION           N/A     88  72  58 S8        30.08S HX  94

....................REST OF NORTH CAROLINA......................

.........EASTERN NC.........

CITY           SKY/WX    TMP DP  RH WIND       PRES   REMARKS
CAPE HATTERAS  SUNNY     86  78  77 SW8       30.08S HX  98
JACKSONVILLE   MOSUNNY   92  76  59 S7        30.07S HX 104
MOREHEAD CITY  SUNNY     87  78  74 SW15      30.08R HX 100
KENANSVILLE    NOT AVBL
NEW BERN       MOSUNNY   91  74  57 W8        30.08R HX 100
ELIZABETH CITY MOSUNNY   90  78  68 S8        30.04S HX 104

.........CENTRAL NC.........

CITY           SKY/WX    TMP DP  RH WIND       PRES   REMARKS
RALEIGH DURHAM MOSUNNY   92  78  63 S6        30.05S HX 107
ROCKY MOUNT    SUNNY     90  78  68 SW8       30.04S HX 104
ROANOKE RAPIDS NOT AVBL
FAYETTEVILLE   SUNNY     92  73  53 S8        30.05F HX 100
HOFFMAN        SUNNY     91  74  58 S9        30.05F HX 100

.........WESTERN NC.........

CITY           SKY/WX    TMP DP  RH WIND       PRES   REMARKS
CHARLOTTE      SUNNY     91  72  53 S8        30.06F HX  98
GREENSBORO     CLOUDY    92  73  53 SW7       30.05F HX 100
HICKORY        NOT AVBL
BOONE          NOT AVBL
ASHEVILLE      NOT AVBL

.....................REST OF SOUTH CAROLINA.....................

.........EASTERN SC.........

CITY           SKY/WX    TMP DP  RH WIND       PRES   REMARKS
CHARLESTON     MOSUNNY   90  73  57 VRB3      30.08F HX  98
BEAUFORT MCAS  MOSUNNY   94  72  48 VRB3      30.09S HX 102
HILTON HEAD    MOSUNNY   95  72  46 S7        30.10S HX 103

.........CENTRAL SC.........

CITY           SKY/WX    TMP DP  RH WIND       PRES   REMARKS
COLUMBIA       MOSUNNY   91  71  51 S7        30.06F HX  97
ORANGEBURG     SUNNY     90  73  57 VRB7      30.08F HX  98
SUMTER SHAW    SUNNY     89  72  57 SW7       30.05F HX  96

.........WESTERN SC.........

CITY           SKY/WX    TMP DP  RH WIND       PRES   REMARKS
GREENVILLE     NOT AVBL
ROCK HILL      SUNNY     91  73  55 VRB7      30.07F HX  99
ANDERSON       SUNNY     92  70  48 VRB3      30.06F HX  97
CLEMSON        NOT AVBL
GREENWOOD      SUNNY     91  70  49 VRB5      30.08F HX  96


...................COASTAL AND OFFSHORE REPORTS..................

................LOCAL PIERS AND NC RESERVE................


STATION/POSITION TIME  SKY/WX   TEMP    WIND        PRES    VSBY
                                AIR SEA DIR/SP/G
                 (UTC)          (F)     (DEG/KT/KT) (MB)    (MI)
JOHNY MRCER PIER 1500            87 80  200/  9/ 11 1017.6S
NC RESRV MASNBRO NOT AVBL
OCEAN CREST PIER NOT AVBL
SPRINGMAID  PIER 1500            86 84              1018.5F


................COASTAL AND OFFSHORE BUOYS................


STATION/POSITION TIME  SKY/WX   TEMP    WIND        PRES    VSBY
                                AIR SEA DIR/SP/G
                 (UTC)          (F)     (DEG/KT/KT) (MB)    (MI)
DIMNDSHOAL 41025 1550            84 85  260/  8/  8 1018.7R
WVE H/P(F/S)=  3/ 5 SWL H/P/D(F/S/D)=  2/210/ 5

CAPE LOOKOUT     1600            86     240/  9/ 11 1018.6R
ONSLOW BAY 41036 NOT AVBL
ONSLOW BAY 41064 1508            85 85  240/ 10/ 14 1018.8R
ONSLOW BAY 41159 1525               85                N/A
WVE H/P(F/S)=  3/ 4

5SE WRITBC 41038 1508            84 84  220/ 10/ 14 1019.4F
MASNBO INL 41110 1506               84                N/A
WVE H/P(F/S)=  2/ 8

WILM HARBR 41108 1526               85                N/A
WVE H/P(F/S)=  3/ 4

27SE WRITB 41037 1508            84 84  240/ 10/ 12 1019.1R
FRYING PAN 41013 1600            83 85  250/ 10/ 14 1018.9F
SUNST NRSH 41024 1508            84 84  230/ 12/ 14 1018.6R
CAPRS NRSH 41029 1508            84 84  210/ 10/ 14 1018.8F
EDISTO     41004 1550            85 86  220/  6/  8 1018.8F
WVE H/P(F/S)=  2/ 9 SWL H/P/D(F/S/D)=  2/140/ 9



..........OFFSHORE BUOYS BEYOND 100 NM OFFSHORE...........
.....IN A TRIANGLE---HAT TO BERMUDA TO BAHAMAS TO HAT.....


STATION/POSITION TIME  SKY/WX   TEMP    WIND        PRES    VSBY
                                AIR SEA DIR/SP/G
                 (UTC)          (F)     (DEG/KT/KT) (MB)    (MI)
150E HAT   41001 NOT AVBL
W BERMUDA  41048 1550            83 84  260/  8/ 10 1020.4S
WVE H/P(F/S)=  2/ 8 SWL H/P/D(F/S/D)=  2/130/ 8

ATLANTIC S 41049 1550            83 88   CALM  /  2 1022.1S
WVE H/P(F/S)=  3/ 7 SWL H/P/D(F/S/D)=  3/120/ 7

E BAHAMAS  41046 1600            84 85   90/ 14/ 16 1019.6F
NE BAHAMAS 41047 1600            84 85  110/  6/  8 1020.5F
120E CANVRL41010 1520            82 87  110/  6/  8 1019.7R

END




USA.gov is the U.S. government's official web portal to all federal, state and local government web resources and services.